World > North America > United States > New York

Hourly Snyders Lake, NY Regional Weather

Feedback E-mail the Weather

Latest News

Snyders Lake, NY Weather Maps

°F °C°F °C
Snyders Lake Weather Map
UTC Time: 5/21/2022, 03:48
Your Time:

Snyders Lake, NY Regional Weather

Expires:202205210400;;304990
ASUS41 KALY 210310
RWRALY

NEW YORK STATE HOURLY WEATHER ROUNDUP
NATIONAL WEATHER SERVICE ALBANY NY
1100 PM EDT FRI MAY 20 2022

NOTE: "FAIR" INDICATES FEW OR NO CLOUDS BELOW 12,000 FEET WITH NO
SIGNIFICANT WEATHER AND/OR NO OBSTRUCTIONS TO VISIBILITY.


NYZ032-033-038>043-046>054-057>066-NYZ062>081-082-084-210400-
EAST

  
CITY           SKY/WX    TMP DP  RH WIND       PRES   REMARKS
ALBANY         MOCLDY    68  60  75 S15G22    29.92R                  
GLENS FALLS    CLOUDY    69  60  73 S12G20    29.90R                  
POUGHKEEPSIE   PTCLDY    63  61  93 SE3       29.94R                  
NEWBURGH       MOCLDY    63  63 100 SE6       29.96R                  
MONTGOMERY     FOG       60  60 100 CALM      29.95S VSB 1/2          
WHITE PLAINS   FOG       63  61  93 E5        29.96S VSB 1/2          
ISLIP          FOG       64  64 100 SE12      29.96F VSB 1/2          
NEW YORK CITY  FOG       60  58  92 NE7       29.95S VSB 1            
CENTRAL PARK   FOG       63  62  97 CALM      29.97F VSB 3/4          
$$


SKY/WX - Weather  TMP - Temperature  DP - Dew Point  RH - Humidity
WIND - Wind Direction/Speed PRES - Barometric Pressure VSB - Visibility
WCI - Wind Chill Index E13G22 Wind - East Wind 13 mph/Gusts of 22 mph

Trending Headlines

Snyders Lake Radar Loop



Snyders Lake Quick Facts


National Two Day Weather Forecast


E-mail the Snyders Lake Weather Forecast

Voice your opinion or tell us about page issues...